Location: Saint-Usage
(47.1052°N, 5.2587°E)
Time: 02:19:30
(UTC+02:00)

Envisat - Pass Details

Date: 05 October 2021
Orbit: 764 x 766 km, 98.2° (Epoch: 17 October)

Event Time Altitude Azimuth Distance (km) Brightness Sun altitude
Rises 06:24:09 0° 18° (NNE) 3,242 6.6 -14.3°
Reaches altitude 10° 06:26:33 10° 25° (NNE) 2,311 5.9 -13.9°
Maximum altitude 06:31:27 47° 98° (E) 1,015 4.2 -13.0°
Drops below altitude 10° 06:36:19 10° 172° (S) 2,294 5.5 -12.2°
Sets 06:38:42 0° 179° (S) 3,215 6.2 -11.8°
